Theta_e
325 326 327 326 327 328 328 328 328 328 328 329 329 328 326 324 323 322 322 322 322 322 322 322 321 320 320 319 320 322 323 321 320 321 319 320 318 311 308 309 313 318 321 323 325 325 324 324 326 326 325 325 323 324 324 325 325 324 322 315 311 313
324 326 326 326 327 328 329 329 327 328 328 328 328 328 326 324 323 323 322 322 322 322 322 322 321 320 320 319 319 322 321 320 321 321 320 323 322 315 309 309 313 318 322 323 324 324 324 325 326 325 326 325 324 325 325 325 325 325 322 314 310 311
323 325 326 327 328 328 329 328 328 328 327 326 327 328 326 323 323 324 324 323 323 323 322 322 321 319 319 319 319 319 319 321 322 321 323 327 327 323 317 314 315 317 320 321 322 323 324 324 324 325 325 325 325 325 325 326 325 324 321 314 311 310
324 325 326 328 329 329 329 328 329 328 327 326 326 328 326 323 322 324 327 327 325 323 322 322 321 319 318 318 318 318 320 322 322 322 327 331 331 330 327 324 323 322 322 322 323 324 324 324 324 326 326 326 326 326 326 326 325 324 322 316 311 311
327 326 326 328 329 329 329 329 329 329 328 325 325 327 325 323 323 326 330 330 327 324 323 321 319 319 318 318 317 319 322 323 322 326 331 332 332 332 331 330 330 329 329 328 328 328 327 326 326 327 327 327 328 327 326 326 325 324 323 319 314 312
330 329 328 328 328 328 328 328 329 330 328 324 325 326 325 325 328 330 331 332 328 324 324 322 319 319 318 317 318 321 324 323 325 330 332 332 332 332 331 332 331 331 331 332 332 331 329 328 327 327 327 327 327 327 327 326 325 325 323 322 319 316
332 331 331 330 329 328 328 329 329 330 329 325 324 327 327 329 332 333 333 333 329 324 325 324 320 318 318 318 320 324 324 324 327 331 332 333 333 332 332 332 331 332 332 332 332 332 330 329 328 327 327 327 327 326 327 326 325 324 323 321 320 320
334 334 333 332 332 330 329 330 330 330 331 327 326 329 330 332 333 334 334 333 329 327 328 325 320 319 319 320 323 325 325 326 329 332 333 334 333 333 332 332 332 332 332 332 331 331 330 330 329 328 327 326 326 326 325 326 324 323 324 322 320 319
335 335 334 333 332 331 330 332 331 331 332 331 329 330 331 333 334 334 335 333 330 332 331 325 321 320 320 322 328 329 328 329 331 333 334 334 333 333 333 332 332 332 332 332 331 331 331 330 330 329 328 328 327 326 324 324 324 325 325 324 322 320
335 335 334 334 334 332 331 332 332 332 332 332 331 331 332 333 334 334 334 333 332 333 333 328 325 323 323 324 330 333 333 333 334 334 334 334 334 333 333 333 332 332 332 332 331 331 331 331 329 329 329 329 328 327 325 324 326 326 326 325 324 323
335 335 335 335 334 333 332 331 332 333 333 332 332 332 332 333 334 334 333 333 334 334 334 333 331 329 329 329 330 333 334 334 334 334 334 334 334 334 333 333 332 332 332 332 332 332 332 331 330 330 330 330 329 327 326 325 327 327 327 326 326 325
335 335 335 334 333 332 331 331 332 333 333 333 333 333 333 333 334 334 334 334 334 334 334 334 334 333 333 333 333 333 334 334 333 334 334 334 334 334 334 333 333 332 333 333 333 332 332 330 328 330 330 330 329 328 327 326 327 328 327 327 327 327
335 335 335 334 333 331 330 331 331 333 334 333 334 333 332 333 334 334 334 334 334 334 334 334 334 334 334 334 334 334 334 334 333 333 334 334 334 334 334 334 333 333 334 333 333 333 333 331 330 331 329 329 329 328 328 327 327 328 328 327 327 327
334 333 334 335 333 330 330 331 331 332 334 334 334 333 333 334 335 334 333 335 335 334 334 334 334 335 335 334 334 335 335 334 334 333 333 333 334 334 334 333 333 333 334 334 334 334 334 333 333 333 332 331 332 330 328 327 327 328 328 328 327 328
332 332 334 335 333 331 331 332 332 332 333 334 333 332 332 333 332 333 333 334 335 335 335 335 335 336 336 334 335 335 335 335 334 333 333 333 334 334 333 333 333 333 334 334 334 335 334 334 334 334 334 333 334 332 330 328 327 328 328 328 328 328
332 332 334 335 333 331 332 333 332 332 333 333 333 331 331 331 331 332 333 334 335 335 335 335 336 336 335 335 336 335 335 336 334 334 333 333 333 334 333 333 333 333 333 333 334 335 335 334 334 334 334 334 334 334 332 331 330 330 330 330 330 329
334 333 333 334 333 331 332 333 332 333 333 333 331 329 329 330 331 332 333 334 334 334 335 335 336 336 336 336 336 335 334 335 335 334 334 333 333 334 333 333 333 332 333 333 333 334 335 334 335 334 334 334 334 334 333 333 332 332 333 333 332 332
334 334 334 334 333 331 332 333 333 333 332 332 329 327 328 329 332 334 334 334 333 333 334 334 335 336 336 336 336 335 334 335 335 335 334 333 334 334 334 333 333 332 333 333 333 333 334 334 334 334 334 334 334 334 334 334 334 334 335 335 334 333
335 335 334 334 333 332 334 334 333 332 330 330 329 327 326 327 330 333 334 333 332 332 333 333 333 334 335 336 335 334 334 335 335 334 334 334 334 332 332 333 333 333 332 332 332 332 333 334 334 334 334 333 334 335 335 335 335 335 335 335 335 334
335 335 334 334 334 334 335 335 333 332 330 330 331 329 326 326 328 329 330 332 332 333 332 333 332 333 334 335 335 334 333 333 334 333 331 333 333 330 330 332 333 333 333 332 331 331 332 333 334 334 334 333 334 334 335 335 335 335 335 335 335 335
335 335 334 333 333 334 334 334 333 333 332 331 332 331 328 327 328 327 327 329 332 333 333 332 332 332 334 334 335 335 334 332 333 332 330 330 332 331 330 331 333 333 333 332 330 330 331 332 333 334 334 334 334 334 334 335 335 334 334 333 334 334
334 334 334 332 332 332 332 333 332 333 333 333 333 332 329 328 330 329 328 328 330 332 333 332 330 330 332 333 333 334 334 332 332 331 331 330 331 330 330 330 332 333 333 333 331 330 331 332 332 333 334 334 334 334 333 333 334 334 333 333 333 334
334 333 333 332 332 332 332 332 332 331 331 332 333 332 329 328 329 330 330 330 331 331 332 330 328 328 328 330 331 332 333 332 332 332 331 331 330 329 329 330 331 332 332 332 331 329 330 331 332 332 333 333 333 334 333 333 333 333 333 333 333 335
333 333 333 332 331 331 332 331 331 330 331 331 332 331 329 328 328 329 330 331 331 331 330 329 329 328 325 325 328 329 332 332 333 332 331 331 331 330 330 330 331 330 329 329 329 329 330 330 331 331 331 332 333 333 333 333 333 333 333 332 332 334
333 334 333 332 331 331 331 331 331 330 331 332 331 331 330 328 328 328 329 330 331 331 330 330 330 330 328 325 323 324 328 331 332 332 331 331 330 330 330 330 329 329 328 327 327 327 328 329 330 330 330 331 332 332 333 334 333 333 333 333 332 333
332 333 333 332 331 331 331 331 331 330 331 331 330 329 328 328 329 329 329 329 330 330 331 331 331 331 330 329 326 324 325 329 331 331 331 330 329 329 329 329 328 328 327 326 326 326 327 328 330 330 330 329 331 332 333 334 333 333 334 333 333 333
332 332 332 332 332 332 332 331 331 331 331 330 329 329 329 330 330 330 330 330 331 331 331 332 332 332 331 330 329 327 326 328 329 330 330 330 329 328 329 329 328 328 328 327 326 325 326 327 328 329 329 327 328 332 333 333 333 334 334 334 334 333
330 331 331 331 332 332 331 331 331 331 332 331 330 330 331 332 332 332 332 332 333 333 333 333 333 332 331 331 330 328 327 328 328 329 329 328 327 327 328 329 329 328 328 327 326 325 325 326 326 326 327 327 329 331 332 333 333 333 333 333 333 332
326 326 327 327 329 330 331 331 331 331 331 332 332 332 333 334 334 334 333 333 333 333 333 334 333 333 332 331 331 330 329 328 327 326 327 326 327 327 327 328 329 328 327 326 326 325 325 326 326 325 326 329 330 331 332 332 332 332 333 333 332 332
324 324 324 324 325 327 329 330 331 331 331 331 332 332 333 333 334 334 333 332 332 332 332 333 333 333 333 332 332 331 331 330 328 327 327 326 326 327 327 328 328 328 327 325 324 324 325 326 326 325 326 329 331 331 332 332 332 331 333 333 332 332
326 327 326 325 325 326 327 328 330 331 330 330 331 331 331 331 332 332 332 331 332 332 332 333 333 333 333 333 332 332 332 331 330 329 328 326 325 326 326 327 328 328 327 325 324 324 324 326 328 326 326 328 329 330 332 332 332 331 332 333 333 333
329 330 329 327 326 326 327 327 329 330 331 331 331 331 331 331 332 332 332 332 332 333 332 332 332 333 333 333 333 332 331 332 331 330 329 328 326 325 325 325 326 327 327 326 325 325 324 326 328 328 328 328 328 329 331 331 331 332 332 333 333 334
330 330 330 329 327 327 327 327 328 329 330 330 330 330 330 331 332 332 332 332 333 333 332 332 331 331 332 332 333 332 332 332 332 331 330 329 328 327 326 326 325 326 327 327 327 327 325 325 327 328 329 329 327 326 329 331 332 332 333 333 334 334
328 328 327 327 326 326 326 325 326 327 327 328 329 330 330 330 331 331 332 332 333 333 332 332 331 330 331 332 333 333 333 333 332 332 331 331 329 328 328 328 327 328 328 328 328 328 326 324 325 326 327 329 328 325 327 330 332 332 333 334 334 334
325 325 324 325 325 322 321 321 322 324 326 327 328 329 329 329 329 330 331 331 331 332 331 331 330 330 330 331 332 333 333 333 332 332 332 332 331 330 329 329 329 329 328 328 328 328 327 326 326 326 326 328 328 327 327 329 331 332 332 333 334 333
322 324 323 323 324 321 318 317 319 322 325 326 327 328 328 327 327 328 330 330 330 330 330 330 330 330 330 331 331 332 332 332 332 333 332 332 332 331 330 330 329 329 328 327 327 328 328 328 329 328 327 326 327 328 327 328 330 331 331 332 333 332
322 324 323 323 323 320 317 316 317 321 325 327 328 328 328 327 326 327 328 329 329 329 330 329 329 330 330 330 331 331 332 332 332 332 332 332 332 331 331 331 330 329 328 327 327 327 328 329 330 331 330 328 328 328 328 328 329 331 331 331 330 330
Wind_Speed
16 16 15 15 14 14 13 13 12 12 11 10 10 9 8 8 8 8 6 5 5 4 5 4 4 5 6 6 6 6 6 7 8 10 11 11 13 13 14 17 19 19 19 18 18 18 16 13 9 4 2 1 1 2 4 7 10 13 14 12 7 4
16 16 16 15 15 14 14 13 13 13 12 11 11 10 9 8 8 8 7 6 6 4 4 4 4 5 6 7 7 7 7 8 9 10 12 12 14 16 16 18 19 19 19 19 18 17 15 12 9 5 3 2 1 1 4 8 11 13 13 11 7 4
15 15 15 15 15 14 13 13 13 12 12 12 11 11 10 10 9 9 7 7 6 4 4 5 5 6 6 7 8 7 8 10 10 11 12 12 14 17 18 19 19 19 18 18 17 16 15 12 9 5 4 3 1 2 5 8 11 12 12 10 7 5
14 14 14 14 14 14 13 13 12 12 12 12 12 11 11 10 10 9 7 6 6 6 6 6 7 7 7 7 8 9 10 11 11 12 12 12 13 15 17 19 19 18 17 16 16 14 12 11 9 6 3 1 2 3 5 8 11 13 13 11 8 6
14 14 14 13 13 13 13 13 12 12 11 12 12 12 11 10 10 9 8 7 6 7 7 7 7 7 7 7 7 9 11 12 13 14 13 13 13 14 15 16 16 16 15 14 12 11 10 9 8 5 2 2 3 4 5 7 10 13 14 13 9 7
15 15 14 14 13 13 13 13 12 12 11 12 12 11 11 10 9 9 8 7 6 7 7 7 7 7 7 7 8 10 11 13 15 15 13 13 13 13 14 14 13 12 11 10 8 8 9 8 5 4 2 3 4 4 5 5 8 12 14 14 11 8
15 15 15 14 14 13 12 11 11 11 11 11 12 11 10 9 8 8 8 6 6 6 6 7 8 8 7 8 10 11 12 14 15 14 12 11 12 13 13 12 12 10 9 8 6 6 6 8 4 1 2 4 5 6 6 4 7 11 13 13 12 9
14 15 15 15 14 14 12 11 11 11 11 12 12 10 9 8 8 8 8 6 5 6 6 8 9 9 8 10 12 12 13 14 14 11 9 10 12 13 13 12 11 10 8 7 5 5 4 5 5 3 2 4 5 5 4 2 4 9 12 13 12 9
13 14 14 14 13 14 13 12 11 11 11 12 12 11 9 9 9 8 8 7 5 5 6 8 10 10 10 12 14 14 13 13 11 8 7 9 11 13 13 12 11 9 7 6 4 3 3 1 2 3 0 3 6 6 4 3 4 8 11 12 12 11
13 13 13 12 11 12 12 11 11 11 12 12 11 11 10 10 9 8 8 8 7 6 6 8 10 11 12 13 14 13 11 10 9 7 6 7 9 11 12 11 11 10 7 6 3 2 1 2 2 2 3 2 5 7 6 6 6 8 10 11 11 11
14 14 13 12 11 11 11 11 12 11 12 12 11 11 10 11 10 10 9 9 9 7 7 9 10 10 12 12 12 11 9 8 8 7 5 7 9 9 10 10 10 9 7 4 2 1 2 7 5 4 4 2 1 4 5 5 5 7 8 8 8 9
15 14 14 13 11 11 11 11 12 12 12 12 11 11 11 11 11 11 10 10 10 9 9 10 9 9 10 10 10 10 9 8 7 7 5 6 8 9 9 9 8 9 6 3 1 2 2 6 7 5 4 2 2 1 1 2 3 5 6 6 7 7
15 14 14 14 12 11 11 12 13 13 13 12 11 11 10 10 11 12 11 10 10 9 9 9 9 10 9 9 10 10 8 8 6 6 6 6 7 8 8 8 9 9 7 4 3 2 4 4 4 3 3 1 1 4 5 2 2 4 5 6 6 5
15 14 14 14 13 13 12 13 13 13 13 12 11 11 10 10 12 12 12 11 11 10 9 8 9 10 9 9 10 10 9 9 9 8 8 8 8 8 7 8 9 10 10 8 7 4 2 4 3 1 1 2 3 3 6 4 2 4 4 6 6 5
15 14 14 14 14 14 14 13 13 13 13 11 11 10 10 11 12 13 13 13 13 13 11 9 9 10 10 9 9 10 11 11 10 10 9 8 9 8 7 7 8 10 11 10 9 7 5 4 3 2 1 1 3 4 5 4 3 4 5 5 5 4
15 14 14 13 14 15 14 13 13 13 12 10 11 10 10 12 12 13 14 14 15 15 14 12 11 11 10 10 9 11 13 12 11 11 10 8 8 8 7 8 9 10 9 10 10 9 8 8 5 4 4 2 3 5 5 4 3 3 4 4 3 2
15 14 14 14 14 14 13 13 13 13 12 12 11 10 11 12 13 13 14 14 15 15 14 12 11 11 12 12 11 12 14 14 12 12 12 10 9 9 9 10 11 10 10 11 11 11 12 11 9 8 7 4 3 5 5 4 3 2 4 5 3 3
16 15 15 15 15 15 14 14 14 14 14 12 10 10 12 13 13 14 14 14 15 15 14 13 12 13 14 14 13 14 16 15 14 13 13 12 11 11 11 11 11 11 11 13 12 11 12 12 12 11 9 7 6 5 4 5 5 4 5 5 4 3
16 16 16 16 16 16 16 16 16 15 15 13 11 11 12 13 14 14 14 14 14 14 13 14 15 16 17 16 15 16 17 16 15 15 14 14 13 13 13 11 11 11 12 13 12 11 11 11 12 12 10 8 7 6 4 5 5 6 6 6 6 6
18 17 17 18 17 17 17 16 16 15 15 14 13 12 12 13 14 15 15 14 14 14 13 15 16 17 18 17 17 17 17 16 16 15 15 15 14 14 13 12 11 12 13 13 12 11 11 11 11 12 12 9 8 7 6 5 6 6 7 8 7 8
18 18 18 19 18 18 17 17 17 16 16 16 15 15 14 13 14 14 15 15 14 14 14 15 16 17 17 18 18 18 18 17 16 15 15 15 15 14 14 13 13 13 13 13 12 11 12 12 11 12 13 11 9 7 5 5 6 7 7 8 8 8
18 18 18 18 19 18 18 17 17 18 19 19 18 18 17 15 15 15 16 16 15 15 15 15 15 16 17 18 19 20 20 20 18 16 15 15 15 15 15 14 14 14 14 13 12 11 11 12 12 13 12 10 9 8 6 6 7 8 8 8 8 8
18 18 16 17 18 18 18 17 17 18 19 20 20 20 19 18 17 17 16 17 17 17 17 16 15 16 17 17 18 20 21 22 20 18 17 16 16 16 15 15 15 15 14 13 13 12 11 11 12 12 12 10 9 8 7 5 7 8 9 8 7 7
17 17 16 16 17 17 17 17 17 18 19 19 20 21 21 20 20 19 18 18 18 18 19 18 16 15 17 18 18 19 20 22 22 21 20 18 17 16 15 15 16 15 15 14 14 13 12 12 13 12 11 10 9 7 5 3 5 7 8 9 8 7
17 18 17 17 17 17 17 18 18 19 19 19 20 21 22 22 22 21 19 19 18 18 18 17 15 15 17 18 19 20 20 21 22 23 22 21 20 18 17 16 17 16 16 15 14 13 14 14 14 13 12 10 9 7 6 4 3 4 5 6 7 7
18 19 18 18 18 18 19 19 20 20 20 20 20 21 21 21 21 20 19 18 18 18 19 18 18 18 18 18 19 20 21 20 21 22 22 22 22 21 19 18 18 18 17 16 15 14 15 16 15 15 14 13 10 8 8 6 3 2 2 3 4 6
19 19 19 19 19 19 20 20 19 19 19 20 19 18 17 17 17 17 17 17 18 19 20 21 22 21 20 19 19 19 20 20 20 20 21 21 22 21 20 19 19 19 18 17 17 16 15 17 17 16 15 15 13 11 10 8 6 3 4 4 4 5
19 18 19 19 19 19 19 19 18 18 17 18 17 15 13 14 14 15 16 17 18 19 21 23 24 24 22 21 20 19 20 20 19 19 20 21 21 21 20 20 20 20 19 19 19 17 16 17 19 17 15 15 15 13 12 10 8 6 6 8 9 9
18 18 17 17 17 17 18 18 17 16 17 16 16 14 13 13 14 15 16 16 17 17 19 21 23 24 24 23 22 21 21 22 21 20 20 20 20 21 21 21 21 20 20 20 19 18 18 18 20 18 16 16 15 15 13 11 10 8 8 10 11 11
17 16 15 15 15 16 16 16 16 16 16 16 16 15 15 15 16 16 16 16 15 15 16 17 19 21 23 24 24 23 24 24 23 22 21 21 21 21 21 21 21 20 20 19 19 19 18 19 20 19 17 17 16 16 15 14 13 11 10 11 11 11
17 15 15 14 15 15 14 15 15 15 15 15 15 15 16 16 16 16 17 16 15 14 14 15 16 18 19 21 23 24 24 25 25 24 23 22 22 22 21 21 21 20 20 19 19 19 18 19 20 20 20 19 18 17 17 16 15 13 12 11 10 10
19 17 16 15 15 15 15 15 16 16 16 16 16 16 17 17 17 17 17 16 15 15 15 15 15 16 17 18 20 23 24 25 25 25 23 22 22 22 21 21 21 21 20 20 20 20 20 20 21 21 21 21 20 19 19 18 15 15 13 10 9 10
21 19 18 17 16 16 16 17 18 18 18 18 17 17 17 18 18 18 18 17 17 16 16 16 16 16 16 16 18 20 22 24 25 25 25 23 22 21 21 21 22 22 22 21 21 21 21 21 22 21 20 20 20 20 21 19 17 16 13 10 10 10
23 21 19 18 17 16 16 18 18 18 17 17 17 17 18 19 19 19 19 19 19 18 18 17 17 16 16 16 17 18 20 23 24 25 25 25 24 23 22 21 21 21 21 21 21 22 21 21 22 22 20 19 20 20 21 20 18 17 15 12 12 12
23 22 20 18 16 15 16 17 18 17 16 16 17 17 19 19 19 19 20 20 20 20 20 19 19 18 17 17 17 18 20 21 22 23 23 24 25 25 25 24 23 21 20 19 20 22 22 22 23 23 21 20 20 20 21 21 20 19 17 15 14 14
22 22 21 19 17 16 16 17 17 17 15 15 15 17 18 18 18 18 19 20 21 21 21 20 19 19 19 18 18 18 19 19 21 21 20 21 23 24 26 26 26 25 23 22 21 22 23 24 24 24 23 22 21 21 21 21 22 21 19 18 17 17
22 23 23 21 18 17 18 18 18 18 16 15 15 16 18 17 17 16 17 18 19 20 20 20 19 20 20 20 20 19 19 18 20 20 18 18 20 22 24 26 27 27 26 25 24 23 23 24 25 25 24 23 23 22 20 21 23 23 20 19 19 18
Wind_Direction
161 159 161 161 162 162 161 163 160 157 159 163 160 151 141 134 132 130 131 126 119 113 114 126 133 149 157 159 154 142 129 108 98 94 93 93 94 100 118 132 139 143 142 141 138 135 135 127 121 136 196 185 67 352 359 360 356 355 355 358 353 338
163 162 164 164 165 164 163 163 161 161 162 166 163 156 149 143 141 136 138 139 135 129 125 133 134 143 155 158 153 139 123 108 104 105 104 102 99 101 114 127 134 139 140 140 139 140 141 139 137 148 217 214 131 360 6 4 358 353 352 1 11 3
166 165 166 167 168 166 164 162 162 165 165 167 165 162 159 151 147 139 141 145 136 129 137 145 137 140 154 157 151 135 120 113 111 112 111 110 106 104 109 118 125 131 135 136 137 139 141 142 136 148 217 213 94 11 15 9 4 2 1 10 24 21
171 169 170 171 172 169 167 165 165 168 167 169 170 168 166 159 154 148 150 154 138 123 127 140 139 141 153 157 149 131 121 116 115 116 114 113 112 110 111 113 117 122 128 130 131 134 139 144 144 161 220 312 30 13 16 14 11 11 15 20 30 33
177 175 174 176 177 176 171 170 170 173 172 173 176 176 169 164 161 156 158 161 143 119 114 130 142 145 152 153 141 128 122 120 121 119 112 108 110 111 112 113 114 118 122 123 123 121 126 146 164 178 208 2 29 28 16 14 14 14 21 24 27 35
182 179 178 179 183 185 180 175 174 176 177 177 181 182 171 168 167 163 162 157 141 121 113 131 148 150 152 145 132 124 123 125 126 122 112 107 110 110 110 112 113 116 120 120 120 115 107 119 160 206 248 324 353 3 356 2 12 16 24 24 23 30
188 184 184 184 188 192 188 181 179 179 180 182 186 186 178 176 180 172 167 160 145 129 122 138 151 153 151 140 130 127 127 130 131 127 118 116 118 117 115 114 115 118 121 121 124 132 108 94 108 190 287 323 333 330 325 336 9 21 29 26 24 27
194 193 194 192 193 195 192 186 187 187 185 188 190 193 189 186 191 183 174 170 159 145 133 138 147 150 148 139 132 129 130 134 134 131 128 130 132 129 126 123 121 121 122 122 122 138 130 91 78 69 16 346 354 342 326 327 19 33 37 30 27 29
202 202 204 203 200 197 196 192 196 195 192 194 193 197 198 192 195 194 183 176 175 164 140 136 141 143 144 142 137 131 134 140 139 135 138 141 141 138 135 133 133 133 132 128 129 138 134 96 57 82 142 352 26 32 53 91 64 47 41 33 30 35
207 208 213 215 209 204 204 204 206 204 200 200 194 195 203 202 201 201 193 181 183 178 151 144 146 144 144 148 146 139 139 145 144 139 142 153 156 151 144 143 143 146 148 139 140 136 135 281 284 175 236 309 27 44 80 100 74 52 42 36 31 36
208 211 216 218 213 209 214 217 215 210 207 205 197 197 206 210 207 207 203 191 192 190 173 165 156 149 149 156 160 154 152 155 150 140 139 156 169 167 153 153 151 146 150 140 119 85 268 262 246 220 247 253 357 32 79 97 69 49 41 37 27 26
211 213 215 217 213 207 217 222 215 210 210 209 207 207 211 215 212 211 212 206 205 200 190 183 170 161 158 164 170 163 160 168 160 147 153 165 174 177 166 169 162 147 145 131 95 102 172 233 227 232 254 213 202 290 13 87 64 40 31 29 20 14
215 217 216 216 215 211 218 220 213 209 210 212 217 220 218 219 217 214 217 218 219 209 198 197 185 174 168 169 176 171 170 183 183 171 185 190 186 182 174 181 173 158 156 159 189 158 127 167 196 246 283 300 247 257 269 297 28 16 15 13 7 356
217 222 217 216 217 214 217 217 213 211 210 212 218 223 222 219 219 218 217 220 226 218 207 208 196 185 180 178 179 179 185 198 201 198 201 198 193 189 181 182 174 168 173 177 194 205 164 161 153 105 330 346 351 291 267 280 339 339 344 351 349 336
218 223 219 216 214 212 219 219 214 212 211 212 212 218 223 220 219 221 221 221 226 222 213 211 199 192 188 185 186 188 197 205 207 207 207 203 197 199 195 184 173 174 179 181 191 204 216 214 182 168 236 312 353 338 293 281 293 311 320 331 336 332
221 224 222 218 209 209 220 219 212 212 214 214 211 215 219 217 219 222 224 225 228 225 216 209 198 197 196 194 197 201 207 210 210 210 211 212 210 213 209 192 185 188 189 187 189 194 209 224 215 208 232 250 300 325 324 299 282 313 334 336 336 357
224 226 223 220 212 210 217 214 210 211 214 218 217 219 215 213 217 221 224 224 229 230 224 217 205 204 204 203 205 208 214 216 216 217 215 217 220 223 219 202 195 196 200 202 201 193 197 211 214 217 227 221 251 298 323 321 304 330 354 348 342 3
228 228 222 219 214 209 209 207 209 210 215 221 223 223 218 217 218 220 222 220 228 234 231 230 227 224 216 209 212 212 216 219 220 223 221 221 224 222 216 208 202 200 203 211 214 204 196 203 204 209 222 217 220 252 296 317 310 308 326 333 332 340
228 227 222 218 211 205 205 206 212 215 219 224 228 227 222 224 223 220 222 222 228 233 231 229 230 234 229 218 218 219 219 219 219 222 222 223 226 221 215 213 212 211 212 215 219 214 205 208 205 205 217 222 223 228 249 287 299 295 297 304 310 315
224 224 221 218 213 208 207 210 216 220 225 230 234 233 227 227 226 222 222 223 227 232 231 227 224 229 232 227 223 225 227 223 220 223 224 223 225 224 221 222 221 220 220 218 220 219 214 217 214 210 217 226 232 232 231 253 281 289 288 289 292 301
222 222 220 219 220 218 216 216 218 222 227 233 240 242 240 235 233 231 228 225 224 230 231 227 225 225 227 230 228 229 235 233 227 227 228 228 230 229 225 224 225 223 222 222 223 221 219 221 218 215 221 226 229 234 230 235 262 278 284 285 284 290
222 222 221 222 225 226 225 225 225 226 227 231 237 242 244 243 240 237 234 231 227 229 230 227 229 229 226 229 229 230 235 238 236 232 229 229 230 231 228 224 225 223 222 225 227 225 220 219 218 216 221 226 225 229 233 238 255 267 276 281 280 282
220 222 222 223 226 227 228 231 231 230 230 232 236 239 243 242 240 236 234 235 232 231 230 227 230 235 233 232 231 230 231 235 239 237 233 231 229 228 227 225 224 223 221 223 227 226 221 219 219 214 216 222 218 220 230 243 257 264 269 270 266 264
215 217 219 220 222 224 227 230 231 231 233 235 237 239 241 240 238 236 234 233 235 234 233 233 235 241 242 238 237 235 231 232 236 238 238 236 233 229 227 227 226 224 224 226 226 225 224 223 221 217 215 209 203 212 222 233 260 264 260 255 251 251
211 210 213 215 215 217 221 223 226 228 229 231 233 235 237 237 236 237 238 237 240 242 242 243 246 251 251 245 242 241 237 234 234 237 239 238 236 234 231 230 230 229 230 231 232 230 227 225 223 224 223 211 199 205 206 208 251 253 243 248 254 256
208 207 209 210 209 211 214 217 221 224 226 227 229 231 234 237 239 241 244 244 246 249 249 250 253 256 255 250 248 244 240 236 235 237 238 239 238 236 234 233 231 232 232 233 236 236 231 228 226 224 226 226 221 209 199 202 220 226 244 267 265 263
205 205 205 206 206 207 209 213 218 223 226 228 231 235 238 241 244 246 248 248 248 249 248 248 251 254 254 252 250 244 238 235 235 236 237 239 240 238 236 235 233 234 234 234 236 237 236 234 230 226 225 227 225 215 206 208 213 230 271 284 275 272
203 204 204 204 205 205 208 212 216 221 224 228 233 238 242 245 244 243 243 243 244 244 244 244 245 249 251 251 249 243 238 236 235 235 236 238 240 241 240 238 235 233 233 234 235 238 242 238 234 231 227 222 220 218 216 217 217 223 258 276 277 276
204 206 206 206 208 209 211 214 218 222 223 226 231 231 232 233 233 235 238 239 240 240 241 242 242 245 247 247 247 245 243 243 242 240 239 240 242 243 242 240 238 235 234 236 238 240 244 242 236 232 228 223 219 218 219 223 224 221 238 261 270 275
202 205 208 212 216 217 218 221 224 228 229 228 230 231 231 230 231 236 239 240 241 241 240 241 242 243 244 245 245 245 245 246 247 246 244 243 244 244 243 241 240 239 238 239 241 242 244 244 238 231 228 226 223 221 220 223 227 226 228 243 257 270
200 203 208 212 218 221 225 228 229 232 236 237 237 239 240 241 243 245 246 246 246 246 244 241 241 242 243 243 244 244 245 246 247 248 247 245 245 245 245 244 243 242 241 241 243 243 242 242 236 230 228 227 226 225 224 225 228 226 222 230 247 263
202 205 208 213 216 218 223 227 229 232 237 241 243 243 243 244 246 248 250 252 250 249 247 244 243 244 245 244 244 243 243 244 245 247 248 247 246 246 247 247 246 244 243 244 244 244 242 240 237 233 230 228 227 224 225 227 226 222 220 227 243 256
204 206 209 214 215 217 222 225 228 231 234 240 243 244 245 244 244 247 249 251 251 251 250 249 248 249 251 252 250 247 245 245 247 249 250 250 249 249 249 250 249 246 245 246 246 246 245 242 241 240 237 234 231 227 225 224 221 218 217 225 238 245
204 206 210 213 216 221 226 228 230 232 234 238 241 243 245 246 245 246 247 248 250 251 251 252 251 251 254 254 251 249 247 245 247 250 251 251 251 251 251 251 251 249 248 248 249 249 248 244 243 244 242 238 234 231 227 222 219 219 217 223 235 239
204 206 209 210 216 224 229 232 232 233 235 238 241 244 247 250 249 246 246 248 250 252 254 255 255 255 255 253 248 246 246 246 245 247 249 251 252 252 252 251 250 250 250 250 251 251 248 246 244 243 243 241 238 235 230 225 223 224 224 225 233 240
208 209 209 209 214 223 229 231 229 230 234 236 240 245 250 254 253 248 245 245 248 251 254 255 257 258 259 258 254 249 248 248 246 244 247 252 252 251 252 253 252 252 251 251 253 253 250 247 246 245 244 244 242 239 234 230 228 229 230 229 232 240
211 212 211 212 217 223 226 230 231 230 230 232 238 245 252 254 253 250 247 247 248 250 253 255 255 257 258 259 258 255 252 251 249 246 244 248 253 253 252 253 254 254 253 254 255 255 253 250 250 250 248 246 244 240 235 232 232 231 231 231 231 234